When you browse on this site, cookies collect data to enhance your experience and personalize the content and advertising you see.
Visit our Privacy Policy to learn more. By continuing to use the site, you agree to this use of cookies and data.
  • In Hungary
  • List of Countries
  • For 7 days
  • Water Temperature
  • Satellite Maps
  • Weather Map
  • News
  • Weather Widgets
  • user-avatar
    Login

    Hourly Weather Agsu

    Today, 21 March, Thursday

    Time Temperature Precipitation Wind Pressure Humidity
    00:00 +6°C° 0.9 mm 1 mps 733 mmHg 94%
    01:00 +6°C° 0.4 mm 1 mps 732 mmHg 94%
    02:00 +6°C° 0.4 mm 1 mps 732 mmHg 94%
    03:00 +6°C° 0 mm 1 mps 732 mmHg 94%
    04:00 +6°C° 0.4 mm 1 mps 732 mmHg 94%
    05:00 +6°C° 0.4 mm 1 mps 732 mmHg 94%
    06:00 +6°C° 0.4 mm 1 mps 732 mmHg 94%
    07:00 +6°C° 0.2 mm 1 mps 732 mmHg 92%
    08:00 +7°C° 0.2 mm 1 mps 732 mmHg 90%
    09:00 +7°C° 0.2 mm 1 mps 733 mmHg 88%
    10:00 +7°C° 0 mm 2 mps 733 mmHg 86%
    11:00 +8°C° 0 mm 2 mps 733 mmHg 83%
    12:00 +9°C° 0 mm 2 mps 733 mmHg 80%
    13:00 +9°C° 0 mm 2 mps 732 mmHg 78%
    14:00 +10°C° 0 mm 2 mps 732 mmHg 75%
    15:00 +10°C° 0 mm 2 mps 732 mmHg 73%
    16:00 +10°C° 0 mm 2 mps 732 mmHg 76%
    17:00 +9°C° 0 mm 2 mps 732 mmHg 80%
    18:00 +9°C° 0 mm 1 mps 732 mmHg 83%
    19:00 +9°C° 0 mm 1 mps 732 mmHg 85%
    20:00 +9°C° 0 mm 1 mps 732 mmHg 87%
    21:00 +8°C° 0 mm 1 mps 732 mmHg 89%
    22:00 +8°C° 0 mm 1 mps 732 mmHg 91%
    23:00 +8°C° 0 mm 1 mps 732 mmHg 93%

    Tomorrow, 22 March, Friday

    Time Temperature Precipitation Wind Pressure Humidity
    00:00 +7°C° 0 mm 1 mps 732 mmHg 95%
    01:00 +7°C° 0 mm 1 mps 732 mmHg 93%
    02:00 +7°C° 0 mm 1 mps 732 mmHg 92%
    03:00 +6°C° 0 mm 1 mps 732 mmHg 90%
    04:00 +6°C° 0 mm 1 mps 732 mmHg 88%
    05:00 +6°C° 0 mm 1 mps 732 mmHg 86%
    06:00 +6°C° 0 mm 1 mps 732 mmHg 84%
    07:00 +8°C° 0 mm 1 mps 732 mmHg 79%
    08:00 +9°C° 0 mm 1 mps 732 mmHg 74%
    09:00 +10°C° 0 mm 2 mps 732 mmHg 69%
    10:00 +12°C° 0 mm 2 mps 732 mmHg 65%
    11:00 +13°C° 0 mm 2 mps 732 mmHg 61%
    12:00 +12°C° 0 mm 3 mps 732 mmHg 57%
    13:00 +13°C° 0 mm 3 mps 731 mmHg 54%
    14:00 +13°C° 0 mm 3 mps 731 mmHg 51%
    15:00 +14°C° 0 mm 3 mps 730 mmHg 48%
    16:00 +14°C° 0 mm 2 mps 730 mmHg 51%
    17:00 +13°C° 0 mm 1 mps 730 mmHg 53%
    18:00 +12°C° 0 mm 1 mps 730 mmHg 56%
    19:00 +11°C° 0 mm 1 mps 731 mmHg 59%
    20:00 +11°C° 0 mm 1 mps 731 mmHg 62%
    21:00 +9°C° 0 mm 2 mps 731 mmHg 66%
    22:00 +9°C° 0.3 mm 2 mps 732 mmHg 72%
    23:00 +8°C° 0.3 mm 2 mps 732 mmHg 79%

    Day after tomorrow, 23 March, Saturday

    Time Temperature Precipitation Wind Pressure Humidity
    00:00 +8°C° 0.3 mm 2 mps 732 mmHg 85%
    01:00 +7°C° 0 mm 2 mps 731 mmHg 87%
    02:00 +8°C° 0 mm 1 mps 731 mmHg 89%
    03:00 +7°C° 0 mm 1 mps 731 mmHg 91%
    04:00 +7°C° 0 mm 1 mps 731 mmHg 89%
    05:00 +7°C° 0 mm 1 mps 731 mmHg 88%
    06:00 +6°C° 0 mm 1 mps 731 mmHg 87%
    07:00 +6°C° 0 mm 2 mps 730 mmHg 82%
    08:00 +7°C° 0 mm 2 mps 730 mmHg 76%
    09:00 +8°C° 0 mm 3 mps 730 mmHg 71%
    10:00 +9°C° 0 mm 3 mps 729 mmHg 64%
    11:00 +10°C° 0 mm 3 mps 729 mmHg 57%
    12:00 +11°C° 0 mm 4 mps 728 mmHg 50%
    13:00 +12°C° 0 mm 4 mps 727 mmHg 46%
    14:00 +12°C° 0 mm 4 mps 727 mmHg 42%
    15:00 +13°C° 0 mm 4 mps 726 mmHg 38%
    16:00 +11°C° 0 mm 4 mps 726 mmHg 39%
    17:00 +10°C° 0 mm 3 mps 726 mmHg 41%
    18:00 +9°C° 0 mm 2 mps 726 mmHg 43%
    19:00 +9°C° 0 mm 2 mps 726 mmHg 44%
    20:00 +8°C° 0 mm 2 mps 726 mmHg 45%
    21:00 +8°C° 0 mm 2 mps 726 mmHg 46%
    22:00 +7°C° 0 mm 2 mps 726 mmHg 50%
    23:00 +7°C° 0 mm 2 mps 726 mmHg 55%

    24 March, Sunday

    Time Temperature Precipitation Wind Pressure Humidity
    00:00 +6°C° 0 mm 2 mps 726 mmHg 59%
    01:00 +7°C° 0 mm 1 mps 725 mmHg 58%
    02:00 +7°C° 0 mm 1 mps 725 mmHg 57%
    03:00 +7°C° 0 mm 1 mps 725 mmHg 56%
    04:00 +7°C° 0 mm 1 mps 725 mmHg 53%
    05:00 +7°C° 0 mm 1 mps 725 mmHg 50%
    06:00 +7°C° 0 mm 1 mps 725 mmHg 47%
    07:00 +9°C° 0 mm 1 mps 726 mmHg 43%
    08:00 +11°C° 0 mm 1 mps 726 mmHg 39%
    09:00 +13°C° 0 mm 1 mps 726 mmHg 36%
    10:00 +14°C° 0 mm 2 mps 726 mmHg 35%
    11:00 +14°C° 0 mm 2 mps 726 mmHg 35%
    12:00 +14°C° 0 mm 3 mps 726 mmHg 35%
    13:00 +16°C° 0 mm 3 mps 726 mmHg 37%
    14:00 +16°C° 0 mm 3 mps 726 mmHg 39%
    15:00 +16°C° 0 mm 2 mps 725 mmHg 41%
    16:00 +15°C° 0 mm 2 mps 726 mmHg 47%
    17:00 +14°C° 0 mm 2 mps 726 mmHg 53%
    18:00 +13°C° 0 mm 2 mps 726 mmHg 59%
    19:00 +12°C° 0.1 mm 2 mps 727 mmHg 63%
    20:00 +10°C° 0.1 mm 2 mps 727 mmHg 68%
    21:00 +9°C° 0.1 mm 3 mps 728 mmHg 72%
    22:00 +9°C° 0 mm 3 mps 727 mmHg 71%
    23:00 +9°C° 0 mm 2 mps 727 mmHg 71%

    25 March, Monday

    Time Temperature Precipitation Wind Pressure Humidity
    00:00 +8°C° 0 mm 2 mps 727 mmHg 70%
    01:00 +8°C° 0.2 mm 2 mps 727 mmHg 72%
    02:00 +8°C° 0.2 mm 2 mps 728 mmHg 74%
    03:00 +7°C° 0.2 mm 2 mps 728 mmHg 76%
    04:00 +7°C° 0.4 mm 2 mps 728 mmHg 77%
    05:00 +6°C° 0.4 mm 2 mps 728 mmHg 78%
    06:00 +6°C° 0.4 mm 2 mps 729 mmHg 80%
    07:00 +6°C° 0.2 mm 2 mps 729 mmHg 79%
    08:00 +6°C° 0.2 mm 2 mps 730 mmHg 79%
    09:00 +7°C° 0.2 mm 1 mps 730 mmHg 78%
    10:00 +7°C° 0.1 mm 2 mps 730 mmHg 78%
    11:00 +7°C° 0.1 mm 2 mps 730 mmHg 78%
    12:00 +7°C° 0.1 mm 2 mps 730 mmHg 78%
    13:00 +7°C° 0.2 mm 2 mps 730 mmHg 78%
    14:00 +7°C° 0.2 mm 2 mps 730 mmHg 79%
    15:00 +7°C° 0.2 mm 2 mps 730 mmHg 79%
    16:00 +7°C° 0.1 mm 2 mps 730 mmHg 81%
    17:00 +8°C° 0.1 mm 1 mps 730 mmHg 82%
    18:00 +8°C° 0.1 mm 1 mps 730 mmHg 83%
    19:00 +7°C° 0 mm 1 mps 731 mmHg 85%
    20:00 +7°C° 0 mm 1 mps 731 mmHg 86%
    21:00 +7°C° 0 mm 1 mps 731 mmHg 88%
    22:00 +7°C° 0.1 mm 1 mps 731 mmHg 87%
    23:00 +7°C° 0.1 mm 1 mps 730 mmHg 86%

    26 March, Tuesday

    Time Temperature Precipitation Wind Pressure Humidity
    00:00 +6°C° 0.1 mm 2 mps 730 mmHg 85%
    01:00 +5°C° 0.3 mm 2 mps 730 mmHg 85%
    02:00 +5°C° 0.3 mm 2 mps 730 mmHg 85%
    03:00 +6°C° 0.3 mm 1 mps 730 mmHg 85%
    04:00 +6°C° 0.5 mm 1 mps 730 mmHg 85%
    05:00 +4°C° 0.5 mm 2 mps 730 mmHg 84%
    06:00 +4°C° 0.5 mm 2 mps 730 mmHg 84%
    07:00 +5°C° 0.1 mm 2 mps 730 mmHg 81%
    08:00 +5°C° 0.1 mm 2 mps 731 mmHg 77%
    09:00 +6°C° 0.1 mm 2 mps 731 mmHg 74%
    10:00 +7°C° 0 mm 2 mps 730 mmHg 71%
    11:00 +8°C° 0 mm 2 mps 730 mmHg 68%
    12:00 +9°C° 0 mm 3 mps 730 mmHg 65%
    13:00 +9°C° 0.1 mm 2 mps 729 mmHg 66%
    14:00 +9°C° 0.1 mm 2 mps 729 mmHg 67%
    15:00 +9°C° 0.1 mm 2 mps 729 mmHg 68%
    16:00 +9°C° 0 mm 2 mps 729 mmHg 69%
    17:00 +9°C° 0 mm 1 mps 729 mmHg 71%
    18:00 +9°C° 0 mm 1 mps 729 mmHg 73%
    19:00 +9°C° 0 mm 1 mps 729 mmHg 73%
    20:00 +7°C° 0 mm 2 mps 729 mmHg 73%
    21:00 +7°C° 0 mm 2 mps 730 mmHg 73%
    22:00 +6°C° 0 mm 2 mps 730 mmHg 75%
    23:00 +6°C° 0 mm 1 mps 729 mmHg 77%
    Show more